Location: Newark
(48.4472°N, 1.4892°E)
Time: 16:24:40
(UTC+00:00)

Transit 4A - Pass Details

Date: 22 November 2019
Orbit: 870 x 975 km, 66.8° (Epoch: 08 December)

Event Time Altitude Azimuth Distance (km) Brightness Sun altitude
Exits shadow 04:02:58 22° 2° (N) 1,847 9.5 -30.8°
Maximum altitude 04:05:08 27° 35° (NE) 1,628 9.4 -30.5°
Drops below altitude 10° 04:10:04 10° 93° (E) 2,530 11.1 -29.7°
Sets 04:12:55 0° 105° (ESE) 3,458 12.0 -29.2°
